Simultaneous Nadir Overpasses (SNOs) Predictions

Prediction of SNOs between GOES-15 and METOP-B Satellite Orbit:

Table of predicted SNOs for the next 14.0 days since TLE Epoch: 4/11/2025
Index Date Time (GOES-15) GOES-15 Lat,Lon METOP-B Lat,Lon Distance(km) Time Diff (sec)
1 04/12/2025 05:16:47 -0.13, 61.35 0.60, 57.95 386.53 80
2 04/13/2025 04:58:48 -0.13, 61.36 -0.51, 62.93 180.40 80
3 04/14/2025 17:17:51 0.14, 61.33 -0.51, 58.31 343.39 80
4 04/15/2025 16:57:12 0.14, 61.34 0.60, 63.29 222.90 80
5 04/17/2025 05:13:25 -0.15, 61.40 0.46, 58.71 307.16 80
6 04/18/2025 04:55:26 -0.15, 61.42 -0.65, 63.69 258.87 80
7 04/19/2025 17:14:28 0.16, 61.40 -0.35, 59.06 265.85 80
8 04/20/2025 16:53:50 0.16, 61.41 0.77, 64.04 299.76 80
9 04/22/2025 05:10:02 -0.17, 61.49 0.27, 59.46 231.16 80
10 04/23/2025 04:52:03 -0.17, 61.51 -0.80, 64.45 334.55 80
11 04/24/2025 17:11:05 0.17, 61.49 -0.18, 59.82 190.26 80
12 04/25/2025 16:50:26 0.17, 61.51 0.89, 64.81 375.15 80
